Retour au catalogue

STARLINK-30191

ActifCommunicationsVLEO
NORAD 57413·PAYLOAD·🇺🇸 United States

Lancé Jul 20, 2023 depuis Vandenberg Space Force Base

Loading…

Prochains Passages (prochaines 24 heures)

TLE

FraisSource: CelesTrak SupGP

Époque: Sep 14, 2026, 21:12 UTC

1 57413C 23102K   26257.88381944  .00313440  00000+0  68952-2 0  2578
2 57413  43.0014 195.7679 0001544 278.5848 325.2471 15.42968705    16

Suivez STARLINK-30191 en temps réel avec AllMySat

Download on the App Store